| time (UTC) | temp F | wind direction | speed MPH | gust MPH | rain 1hr in | rain 24hr in | rain mn in | humidity % | barometer mb |
| 20260902191507 | 71 | 232 | 1.0 | 3.0 | 0.00 | 0.01 | 0.01 | 88 | 1012.8 |
| 20260902191143 | 71 | 205 | 0.0 | 2.0 | 0.00 | 0.01 | 0.01 | 87 | 1014.5 |
| 20260902190639 | 71 | 87 | 0.0 | 2.0 | 0.00 | 0.01 | 0.01 | 87 | 1014.4 |
| 20260902190134 | 71 | 309 | 2.0 | 3.0 | 0.00 | 0.01 | 0.01 | 87 | 1014.5 |
| 20260902190008 | 70 | 270 | 1.0 | 6.0 | 0.00 | 0.01 | 0.01 | 89 | 1012.8 |
| 20260902185629 | 70 | 43 | 1.0 | 2.0 | 0.00 | 0.01 | 0.01 | 88 | 1014.5 |
| 20260902185125 | 70 | 62 | 2.0 | 6.0 | 0.00 | 0.01 | 0.01 | 88 | 1014.3 |
| 20260902184620 | 70 | 291 | 2.0 | 3.0 | 0.00 | 0.01 | 0.01 | 88 | 1014.4 |
| 20260902184507 | 70 | 231 | 1.0 | 3.0 | 0.00 | 0.01 | 0.01 | 89 | 1012.7 |
| 20260902184115 | 70 | 286 | 2.0 | 2.0 | 0.00 | 0.01 | 0.01 | 88 | 1014.4 |
| 20260902183612 | 70 | 23 | 2.0 | 2.0 | 0.00 | 0.01 | 0.01 | 88 | 1014.4 |
| 20260902183108 | 70 | 0 | 0.0 | 2.0 | 0.00 | 0.01 | 0.01 | 88 | 1014.5 |
| 20260902183008 | 70 | 317 | 2.0 | 6.0 | 0.00 | 0.01 | 0.01 | 88 | 1012.9 |
| 20260902182604 | 70 | 99 | 0.0 | 3.0 | 0.00 | 0.01 | 0.01 | 89 | 1014.6 |
| 20260902182100 | 70 | 58 | 0.0 | 4.0 | 0.00 | 0.01 | 0.01 | 88 | 1014.4 |
| 20260902181556 | 70 | 24 | 4.0 | 4.0 | 0.00 | 0.01 | 0.01 | 88 | 1014.6 |
| 20260902181507 | 70 | 298 | 1.0 | 3.0 | 0.00 | 0.01 | 0.01 | 88 | 1013.0 |
| 20260902181055 | 70 | 70 | 1.0 | 2.0 | 0.00 | 0.01 | 0.01 | 88 | 1014.9 |
| 20260902180555 | 70 | 199 | 1.0 | 3.0 | 0.00 | 0.01 | 0.01 | 88 | 1015.2 |
| 20260902180051 | 70 | 312 | 0.0 | 2.0 | 0.00 | 0.01 | 0.01 | 88 | 1015.4 |
| 20260902180008 | 71 | 283 | 1.0 | 3.0 | 0.00 | 0.01 | 0.01 | 88 | 1013.5 |
| 20260902175551 | 70 | 84 | 0.0 | 2.0 | 0.00 | 0.01 | 0.01 | 88 | 1015.2 |
| 20260902175047 | 71 | 220 | 0.0 | 2.0 | 0.00 | 0.01 | 0.01 | 88 | 1015.2 |
| 20260902174543 | 71 | 57 | 2.0 | 3.0 | 0.00 | 0.01 | 0.01 | 87 | 1015.3 |
| 20260902174038 | 71 | 78 | 0.0 | 2.0 | 0.00 | 0.01 | 0.01 | 87 | 1015.3 |
| 20260902173538 | 71 | 36 | 0.0 | 2.0 | 0.00 | 0.01 | 0.01 | 87 | 1015.4 |
| 20260902173033 | 71 | 75 | 1.0 | 3.0 | 0.00 | 0.01 | 0.01 | 88 | 1015.6 |
| 20260902173008 | 71 | 86 | 0.0 | 3.0 | 0.00 | 0.01 | 0.01 | 88 | 1013.8 |
| 20260902172532 | 71 | 10 | 0.0 | 2.0 | 0.00 | 0.01 | 0.01 | 88 | 1015.7 |
| 20260902172028 | 71 | 269 | 0.0 | 2.0 | 0.00 | 0.01 | 0.01 | 88 | 1015.5 |
| 20260902171523 | 71 | 254 | 2.0 | 5.0 | 0.00 | 0.01 | 0.01 | 87 | 1015.6 |
| 20260902171019 | 71 | 340 | 0.0 | 3.0 | 0.00 | 0.01 | 0.01 | 88 | 1015.5 |
| 20260902170514 | 71 | 231 | 2.0 | 2.0 | 0.00 | 0.01 | 0.01 | 88 | 1015.3 |
| 20260902170011 | 71 | 247 | 4.0 | 4.0 | 0.00 | 0.01 | 0.01 | 88 | 1015.5 |
| 20260902170006 | 71 | 256 | 2.0 | 6.0 | 0.00 | 0.01 | 0.01 | 88 | 1013.7 |
| 20260902165510 | 71 | 63 | 2.0 | 6.0 | 0.00 | 0.01 | 0.01 | 88 | 1015.5 |
| 20260902165010 | 71 | 118 | 0.0 | 3.0 | 0.00 | 0.01 | 0.01 | 88 | 1015.5 |
| 20260902164506 | 71 | 255 | 2.0 | 3.0 | 0.00 | 0.01 | 0.01 | 89 | 1013.8 |
| 20260902164003 | 71 | 197 | 0.0 | 3.0 | 0.00 | 0.01 | 0.01 | 89 | 1015.1 |
| 20260902163459 | 71 | 248 | 4.0 | 4.0 | 0.00 | 0.01 | 0.01 | 88 | 1015.2 |
| 20260902163007 | 71 | 194 | 1.0 | 3.0 | 0.00 | 0.01 | 0.01 | 90 | 1013.3 |
| 20260902162957 | 71 | 92 | 0.0 | 2.0 | 0.00 | 0.01 | 0.01 | 89 | 1015.0 |
| 20260902162452 | 71 | 198 | 1.0 | 3.0 | 0.00 | 0.01 | 0.01 | 89 | 1014.9 |
| 20260902161953 | 71 | 240 | 2.0 | 3.0 | 0.00 | 0.01 | 0.01 | 90 | 1015.1 |
| 20260902161506 | 71 | 226 | 1.0 | 3.0 | 0.00 | 0.01 | 0.01 | 90 | 1013.2 |
| 20260902161448 | 71 | 142 | 1.0 | 5.0 | 0.00 | 0.01 | 0.01 | 89 | 1014.6 |
| 20260902160943 | 71 | 221 | 1.0 | 5.0 | 0.00 | 0.01 | 0.01 | 90 | 1014.9 |
| 20260902160439 | 71 | 14 | 0.0 | 2.0 | 0.00 | 0.01 | 0.01 | 90 | 1015.2 |
| 20260902160009 | 70 | 261 | 1.0 | 2.0 | 0.00 | 0.01 | 0.01 | 91 | 1013.6 |
| 20260902155937 | 71 | 289 | 2.0 | 2.0 | 0.00 | 0.01 | 0.01 | 90 | 1015.1 |
| 20260902155433 | 70 | 99 | 0.0 | 2.0 | 0.00 | 0.01 | 0.01 | 91 | 1015.5 |
| 20260902154926 | 70 | 67 | 0.0 | 2.0 | 0.00 | 0.01 | 0.01 | 91 | 1015.5 |
| 20260902154507 | 70 | 288 | 0.0 | 2.0 | 0.00 | 0.01 | 0.01 | 92 | 1013.7 |
| 20260902154422 | 70 | 8 | 0.0 | 2.0 | 0.00 | 0.01 | 0.01 | 91 | 1015.3 |
| 20260902153921 | 70 | 52 | 1.0 | 1.0 | 0.00 | 0.01 | 0.01 | 91 | 1015.4 |
| 20260902153420 | 70 | 322 | 0.0 | 2.0 | 0.00 | 0.01 | 0.01 | 91 | 1015.4 |
| 20260902153007 | 70 | 263 | 2.0 | 5.0 | 0.00 | 0.01 | 0.01 | 91 | 1013.7 |
| 20260902152915 | 70 | 221 | 0.0 | 4.0 | 0.02 | 0.01 | 0.01 | 91 | 1015.2 |
| 20260902152412 | 70 | 242 | 2.0 | 4.0 | 0.02 | 0.00 | 0.00 | 90 | 1015.0 |
| 20260902151907 | 71 | 242 | 6.0 | 6.0 | 0.02 | 0.00 | 0.00 | 89 | 1015.1 |
| 20260902151507 | 71 | 288 | 1.0 | 3.0 | 0.00 | 0.01 | 0.01 | 89 | 1013.3 |
| 20260902151403 | 71 | 306 | 1.0 | 4.0 | 0.00 | 0.00 | 0.00 | 89 | 1015.1 |
| 20260902150902 | 71 | 216 | 3.0 | 4.0 | 0.00 | 0.00 | 0.00 | 88 | 1015.1 |
| 20260902150359 | 71 | 227 | 1.0 | 3.0 | 0.00 | 0.00 | 0.00 | 88 | 1014.9 |
| 20260902150006 | 71 | 299 | 1.0 | 2.0 | 0.00 | 0.01 | 0.01 | 88 | 1013.3 |
| 20260902145858 | 71 | 271 | 2.0 | 2.0 | 0.00 | 0.00 | 0.00 | 88 | 1015.0 |
| 20260902145353 | 71 | 60 | 1.0 | 2.0 | 0.00 | 0.00 | 0.00 | 88 | 1015.1 |
| 20260902144848 | 71 | 248 | 2.0 | 3.0 | 0.00 | 0.00 | 0.00 | 88 | 1015.3 |
| 20260902144345 | 71 | 311 | 0.0 | 1.0 | 0.00 | 0.00 | 0.00 | 88 | 1015.3 |
| 20260902143844 | 71 | 230 | 2.0 | 3.0 | 0.00 | 0.00 | 0.00 | 88 | 1015.1 |
| 20260902143339 | 71 | 265 | 2.0 | 4.0 | 0.00 | 0.00 | 0.00 | 88 | 1015.1 |
| 20260902143007 | 71 | 237 | 1.0 | 3.0 | 0.00 | 0.01 | 0.01 | 88 | 1013.4 |
| 20260902142835 | 71 | 248 | 2.0 | 3.0 | 0.00 | 0.00 | 0.00 | 89 | 1015.2 |
| 20260902142331 | 71 | 260 | 1.0 | 2.0 | 0.00 | 0.00 | 0.00 | 88 | 1015.6 |
| 20260902141826 | 71 | 232 | 0.0 | 2.0 | 0.00 | 0.00 | 0.00 | 88 | 1015.8 |
| 20260902141322 | 71 | 226 | 4.0 | 6.0 | 0.00 | 0.00 | 0.00 | 87 | 1015.7 |
| 20260902140821 | 71 | 251 | 1.0 | 6.0 | 0.00 | 0.00 | 0.00 | 87 | 1015.8 |
| 20260902140317 | 71 | 295 | 1.0 | 3.0 | 0.00 | 0.00 | 0.00 | 88 | 1015.7 |
| 20260902140007 | 71 | 243 | 1.0 | 3.0 | 0.00 | 0.01 | 0.01 | 89 | 1013.8 |
| 20260902135815 | 71 | 82 | 1.0 | 1.0 | 0.00 | 0.00 | 0.00 | 89 | 1015.5 |
| 20260902135311 | 71 | 229 | 2.0 | 2.0 | 0.00 | 0.00 | 0.00 | 89 | 1015.5 |
| 20260902134810 | 71 | 229 | 0.0 | 1.0 | 0.00 | 0.00 | 0.00 | 89 | 1015.3 |
| 20260902134306 | 72 | 236 | 1.0 | 2.0 | 0.00 | 0.00 | 0.00 | 89 | 1015.4 |
| 20260902133801 | 72 | 111 | 0.0 | 1.0 | 0.00 | 0.00 | 0.00 | 88 | 1015.4 |
| 20260902133301 | 72 | 44 | 0.0 | 2.0 | 0.00 | 0.00 | 0.00 | 88 | 1015.1 |
| 20260902133007 | 72 | 210 | 0.0 | 1.0 | 0.00 | 0.01 | 0.01 | 89 | 1013.5 |
| 20260902132756 | 72 | 50 | 0.0 | 2.0 | 0.00 | 0.00 | 0.00 | 88 | 1015.3 |
| 20260902132251 | 72 | 84 | 0.0 | 1.0 | 0.00 | 0.00 | 0.00 | 88 | 1014.9 |
| 20260902131747 | 72 | 46 | 0.0 | 1.0 | 0.00 | 0.00 | 0.00 | 87 | 1015.0 |
| 20260902131507 | 72 | 210 | 0.0 | 1.0 | 0.00 | 0.01 | 0.01 | 88 | 1013.3 |
| 20260902131243 | 72 | 68 | 1.0 | 2.0 | 0.00 | 0.00 | 0.00 | 88 | 1015.0 |
| 20260902130743 | 72 | 7 | 1.0 | 2.0 | 0.00 | 0.00 | 0.00 | 88 | 1015.1 |
| 20260902130238 | 72 | 30 | 0.0 | 2.0 | 0.00 | 0.00 | 0.00 | 88 | 1015.0 |
| 20260902130006 | 72 | 210 | 0.0 | 1.0 | 0.00 | 0.01 | 0.01 | 89 | 1013.2 |
| 20260902125733 | 72 | 230 | 0.0 | 1.0 | 0.00 | 0.00 | 0.00 | 88 | 1015.0 |
| 20260902125230 | 72 | 286 | 0.0 | 1.0 | 0.00 | 0.00 | 0.00 | 89 | 1014.8 |
| 20260902124726 | 72 | 167 | 0.0 | 2.0 | 0.00 | 0.00 | 0.00 | 89 | 1014.5 |
| 20260902124506 | 71 | 133 | 1.0 | 2.0 | 0.00 | 0.04 | 0.01 | 91 | 1012.9 |
| 20260902124221 | 72 | 89 | 0.0 | 1.0 | 0.00 | 0.00 | 0.00 | 90 | 1014.6 |
| 20260902123717 | 71 | 45 | 0.0 | 1.0 | 0.00 | 0.00 | 0.00 | 90 | 1014.6 |
| 20260902123213 | 71 | 52 | 0.0 | 1.0 | 0.00 | 0.00 | 0.00 | 90 | 1014.7 |
| 20260902123006 | 71 | 276 | 1.0 | 2.0 | 0.00 | 0.05 | 0.01 | 92 | 1012.7 |
| 20260902122711 | 71 | 45 | 2.0 | 2.0 | 0.00 | 0.00 | 0.00 | 90 | 1014.5 |
| 20260902122207 | 71 | 259 | 0.0 | 2.0 | 0.00 | 0.00 | 0.00 | 91 | 1014.3 |
| 20260902121702 | 71 | 174 | 1.0 | 2.0 | 0.00 | 0.00 | 0.00 | 91 | 1014.2 |
| 20260902121506 | 70 | 317 | 0.0 | 2.0 | 0.00 | 0.05 | 0.01 | 93 | 1012.5 |
| 20260902121202 | 70 | 106 | 0.0 | 2.0 | 0.00 | 0.00 | 0.00 | 92 | 1014.2 |
| 20260902120658 | 70 | 103 | 0.0 | 1.0 | 0.00 | 0.00 | 0.00 | 92 | 1014.2 |
| 20260902120154 | 70 | 73 | 2.0 | 2.0 | 0.00 | 0.00 | 0.00 | 93 | 1014.4 |
| 20260902115654 | 70 | 80 | 0.0 | 2.0 | 0.00 | 0.00 | 0.00 | 93 | 1014.2 |
| 20260902115150 | 70 | 72 | 0.0 | 2.0 | 0.00 | 0.00 | 0.00 | 93 | 1014.2 |
| 20260902114646 | 70 | 49 | 0.0 | 2.0 | 0.00 | 0.00 | 0.00 | 93 | 1014.5 |
| 20260902114141 | 70 | 32 | 2.0 | 2.0 | 0.00 | 0.00 | 0.00 | 93 | 1014.4 |
| 20260902113637 | 70 | 85 | 0.0 | 2.0 | 0.00 | 0.00 | 0.00 | 93 | 1014.3 |
| 20260902113132 | 70 | 25 | 2.0 | 2.0 | 0.00 | 0.00 | 0.00 | 93 | 1014.4 |
| 20260902113007 | 70 | 271 | 0.0 | 1.0 | 0.00 | 0.05 | 0.01 | 95 | 1012.6 |
| 20260902112626 | 70 | 25 | 0.0 | 1.0 | 0.00 | 0.00 | 0.00 | 94 | 1014.5 |
| 20260902112124 | 69 | 80 | 1.0 | 2.0 | 0.00 | 0.00 | 0.00 | 93 | 1014.4 |
| 20260902111619 | 69 | 239 | 0.0 | 1.0 | 0.00 | 0.00 | 0.00 | 94 | 1014.4 |
| 20260902111506 | 69 | 251 | 1.0 | 3.0 | 0.00 | 0.05 | 0.01 | 95 | 1012.5 |
| 20260902111115 | 69 | 236 | 1.0 | 2.0 | 0.00 | 0.00 | 0.00 | 94 | 1014.2 |
| 20260902110605 | 69 | 34 | 0.0 | 2.0 | 0.00 | 0.00 | 0.00 | 94 | 1014.5 |
| 20260902110008 | 69 | 273 | 1.0 | 2.0 | 0.00 | 0.05 | 0.01 | 95 | 1012.5 |
| 20260902105600 | 69 | 65 | 1.0 | 2.0 | 0.00 | 0.00 | 0.00 | 94 | 1014.3 |
| 20260902105055 | 69 | 89 | 0.0 | 2.0 | 0.00 | 0.00 | 0.00 | 94 | 1014.5 |
| 20260902104551 | 69 | 45 | 2.0 | 2.0 | 0.00 | 0.00 | 0.00 | 94 | 1014.4 |
| 20260902104506 | 69 | 133 | 1.0 | 1.0 | 0.00 | 0.05 | 0.01 | 95 | 1012.6 |
| 20260902104050 | 69 | 31 | 2.0 | 3.0 | 0.00 | 0.00 | 0.00 | 94 | 1014.3 |
| 20260902103546 | 69 | 73 | 0.0 | 2.0 | 0.00 | 0.00 | 0.00 | 94 | 1014.5 |
| 20260902103041 | 69 | 29 | 1.0 | 2.0 | 0.00 | 0.00 | 0.00 | 94 | 1014.6 |
| 20260902103007 | 69 | 235 | 0.0 | 3.0 | 0.00 | 0.05 | 0.01 | 95 | 1012.6 |
| 20260902102537 | 69 | 229 | 2.0 | 3.0 | 0.00 | 0.00 | 0.00 | 94 | 1014.6 |
| 20260902102034 | 69 | 63 | 0.0 | 2.0 | 0.00 | 0.00 | 0.00 | 94 | 1014.6 |
| 20260902101529 | 69 | 58 | 0.0 | 1.0 | 0.00 | 0.00 | 0.00 | 94 | 1014.6 |
| 20260902101029 | 69 | 51 | 0.0 | 2.0 | 0.00 | 0.00 | 0.00 | 94 | 1014.4 |
| 20260902100529 | 69 | 77 | 0.0 | 2.0 | 0.00 | 0.00 | 0.00 | 94 | 1014.4 |
| 20260902100029 | 69 | 63 | 1.0 | 2.0 | 0.00 | 0.00 | 0.00 | 94 | 1014.4 |
| 20260902100007 | 69 | 259 | 0.0 | 1.0 | 0.00 | 0.05 | 0.01 | 96 | 1012.5 |
| 20260902095528 | 69 | 65 | 0.0 | 2.0 | 0.00 | 0.00 | 0.00 | 94 | 1014.2 |
| 20260902095027 | 69 | 276 | 0.0 | 1.0 | 0.00 | 0.00 | 0.00 | 94 | 1014.2 |
| 20260902094523 | 69 | 124 | 0.0 | 1.0 | 0.00 | 0.00 | 0.00 | 94 | 1014.2 |
| 20260902094506 | 69 | 257 | 0.0 | 3.0 | 0.00 | 0.05 | 0.01 | 96 | 1012.4 |
| 20260902094018 | 69 | 41 | 2.0 | 3.0 | 0.00 | 0.00 | 0.00 | 95 | 1014.1 |
| 20260902093513 | 69 | 69 | 0.0 | 3.0 | 0.00 | 0.00 | 0.00 | 95 | 1014.1 |
| 20260902093013 | 69 | 224 | 1.0 | 2.0 | 0.00 | 0.00 | 0.00 | 95 | 1014.2 |
| 20260902093007 | 69 | 257 | 1.0 | 3.0 | 0.00 | 0.05 | 0.01 | 96 | 1012.3 |
| 20260902092508 | 68 | 248 | 1.0 | 3.0 | 0.00 | 0.00 | 0.00 | 96 | 1014.2 |
| 20260902092003 | 68 | 56 | 1.0 | 2.0 | 0.00 | 0.00 | 0.00 | 96 | 1014.1 |
| 20260902091459 | 68 | 29 | 0.0 | 2.0 | 0.00 | 0.00 | 0.00 | 96 | 1014.1 |
| 20260902090954 | 68 | 4 | 0.0 | 2.0 | 0.00 | 0.00 | 0.00 | 96 | 1013.9 |
| 20260902090450 | 68 | 72 | 0.0 | 1.0 | 0.00 | 0.00 | 0.00 | 96 | 1013.9 |
| 20260902090006 | 68 | 244 | 0.0 | 1.0 | 0.00 | 0.06 | 0.01 | 96 | 1012.0 |
| 20260902085948 | 68 | 16 | 0.0 | 2.0 | 0.00 | 0.00 | 0.00 | 96 | 1014.0 |
| 20260902085444 | 68 | 67 | 1.0 | 2.0 | 0.00 | 0.00 | 0.00 | 96 | 1014.0 |
| 20260902084939 | 68 | 48 | 0.0 | 1.0 | 0.00 | 0.00 | 0.00 | 96 | 1014.0 |
| 20260902084506 | 68 | 244 | 0.0 | 1.0 | 0.00 | 0.06 | 0.01 | 96 | 1012.2 |
| 20260902084435 | 68 | 45 | 1.0 | 2.0 | 0.00 | 0.00 | 0.00 | 96 | 1014.1 |
| 20260902083931 | 68 | 65 | 0.0 | 2.0 | 0.00 | 0.00 | 0.00 | 96 | 1014.1 |
| 20260902083430 | 68 | 49 | 2.0 | 2.0 | 0.00 | 0.00 | 0.00 | 96 | 1014.1 |
| 20260902082925 | 68 | 59 | 0.0 | 2.0 | 0.00 | 0.00 | 0.00 | 96 | 1014.0 |
| 20260902082421 | 68 | 70 | 2.0 | 2.0 | 0.00 | 0.00 | 0.00 | 96 | 1014.0 |
| 20260902081918 | 68 | 54 | 0.0 | 2.0 | 0.00 | 0.00 | 0.00 | 96 | 1013.8 |
| 20260902081508 | 68 | 244 | 0.0 | 0.0 | 0.00 | 0.06 | 0.01 | 96 | 1012.0 |
| 20260902081414 | 68 | 89 | 0.0 | 2.0 | 0.00 | 0.00 | 0.00 | 96 | 1013.8 |
| 20260902080914 | 68 | 32 | 0.0 | 1.0 | 0.00 | 0.00 | 0.00 | 96 | 1013.9 |
| 20260902080410 | 68 | 40 | 0.0 | 2.0 | 0.00 | 0.00 | 0.00 | 96 | 1013.7 |
| 20260902080007 | 68 | 244 | 0.0 | 0.0 | 0.00 | 0.06 | 0.01 | 96 | 1011.9 |
| 20260902075909 | 68 | 53 | 0.0 | 2.0 | 0.00 | 0.00 | 0.00 | 95 | 1013.7 |
| 20260902075406 | 68 | 69 | 0.0 | 2.0 | 0.00 | 0.00 | 0.00 | 95 | 1013.7 |
| 20260902074901 | 68 | 14 | 0.0 | 2.0 | 0.00 | 0.00 | 0.00 | 95 | 1013.7 |
| 20260902074507 | 68 | 244 | 0.0 | 1.0 | 0.00 | 0.06 | 0.01 | 96 | 1011.7 |
| 20260902074356 | 68 | 29 | 0.0 | 2.0 | 0.00 | 0.00 | 0.00 | 95 | 1013.7 |
| 20260902073851 | 68 | 36 | 1.0 | 2.0 | 0.00 | 0.00 | 0.00 | 95 | 1013.8 |
| 20260902073347 | 68 | 42 | 2.0 | 2.0 | 0.00 | 0.00 | 0.00 | 95 | 1013.8 |
| 20260902073008 | 69 | 244 | 0.0 | 1.0 | 0.00 | 0.06 | 0.01 | 96 | 1011.8 |
| 20260902072843 | 68 | 37 | 0.0 | 2.0 | 0.00 | 0.00 | 0.00 | 95 | 1013.8 |
| 20260902072338 | 68 | 3 | 0.0 | 2.0 | 0.00 | 0.00 | 0.00 | 95 | 1013.8 |
| 20260902071835 | 68 | 255 | 0.0 | 2.0 | 0.00 | 0.00 | 0.00 | 95 | 1013.9 |
| 20260902071506 | 69 | 244 | 0.0 | 1.0 | 0.00 | 0.06 | 0.01 | 96 | 1011.8 |
| 20260902071329 | 69 | 48 | 0.0 | 1.0 | 0.00 | 0.00 | 0.00 | 95 | 1014.1 |
| 20260902070826 | 69 | 256 | 0.0 | 1.0 | 0.00 | 0.00 | 0.00 | 95 | 1013.7 |
| 20260902070326 | 69 | 89 | 0.0 | 1.0 | 0.00 | 0.00 | 0.00 | 95 | 1013.7 |
| 20260902070007 | 69 | 244 | 0.0 | 0.0 | 0.00 | 0.06 | 0.01 | 96 | 1011.8 |
| 20260902065824 | 69 | 36 | 0.0 | 1.0 | 0.00 | 0.00 | 0.00 | 95 | 1013.9 |
| 20260902065320 | 69 | 58 | 0.0 | 1.0 | 0.00 | 0.00 | 0.00 | 96 | 1013.9 |
| 20260902064815 | 69 | 64 | 1.0 | 2.0 | 0.00 | 0.00 | 0.00 | 96 | 1014.0 |
| 20260902064311 | 69 | 58 | 1.0 | 1.0 | 0.00 | 0.00 | 0.00 | 96 | 1013.8 |
| 20260902063806 | 69 | 51 | 1.0 | 1.0 | 0.00 | 0.00 | 0.00 | 96 | 1013.9 |
| 20260902063301 | 69 | 81 | 0.0 | 2.0 | 0.00 | 0.00 | 0.00 | 96 | 1013.8 |
| 20260902063008 | 69 | 284 | 0.0 | 1.0 | 0.00 | 0.06 | 0.01 | 97 | 1011.9 |
| 20260902062801 | 69 | 39 | 2.0 | 2.0 | 0.00 | 0.00 | 0.00 | 97 | 1013.9 |
| 20260902062255 | 69 | 322 | 0.0 | 2.0 | 0.00 | 0.00 | 0.00 | 97 | 1013.9 |
| 20260902061754 | 69 | 306 | 1.0 | 2.0 | 0.00 | 0.00 | 0.00 | 97 | 1013.8 |
| 20260902061507 | 70 | 115 | 0.0 | 1.0 | 0.00 | 0.06 | 0.01 | 98 | 1011.8 |
| 20260902061250 | 69 | 85 | 0.0 | 2.0 | 0.00 | 0.00 | 0.00 | 97 | 1013.9 |
| 20260902060747 | 69 | 78 | 1.0 | 2.0 | 0.00 | 0.00 | 0.00 | 97 | 1013.9 |
| 20260902060242 | 69 | 2 | 0.0 | 1.0 | 0.00 | 0.00 | 0.00 | 97 | 1013.9 |
| 20260902060007 | 70 | 271 | 0.0 | 1.0 | 0.01 | 0.06 | 0.01 | 98 | 1012.0 |
| 20260902055738 | 69 | 195 | 0.0 | 2.0 | 0.00 | 0.00 | 0.00 | 97 | 1014.1 |
| 20260902055235 | 69 | 84 | 0.0 | 1.0 | 0.00 | 0.00 | 0.00 | 97 | 1014.0 |
| 20260902054734 | 69 | 89 | 0.0 | 1.0 | 0.00 | 0.00 | 0.00 | 97 | 1014.0 |
| 20260902054506 | 70 | 271 | 0.0 | 1.0 | 0.01 | 0.06 | 0.01 | 98 | 1011.9 |
| 20260902054231 | 69 | 81 | 1.0 | 2.0 | 0.00 | 0.00 | 0.00 | 97 | 1013.8 |
| 20260902053726 | 70 | 67 | 2.0 | 2.0 | 0.00 | 0.00 | 0.00 | 97 | 1013.8 |
| 20260902053225 | 70 | 31 | 1.0 | 2.0 | 0.00 | 0.00 | 0.00 | 98 | 1013.9 |
| 20260902053007 | 70 | 271 | 0.0 | 0.0 | 0.01 | 0.06 | 0.01 | 98 | 1011.9 |
| 20260902052724 | 70 | 80 | 0.0 | 2.0 | 0.00 | 0.00 | 0.00 | 98 | 1013.9 |
| 20260902052220 | 70 | 76 | 0.0 | 2.0 | 0.00 | 0.00 | 0.00 | 98 | 1013.8 |
| 20260902051719 | 70 | 61 | 0.0 | 2.0 | 0.00 | 0.00 | 0.00 | 97 | 1014.0 |
| 20260902051506 | 70 | 271 | 0.0 | 1.0 | 0.01 | 0.06 | 0.01 | 98 | 1012.0 |
| 20260902051214 | 69 | 89 | 0.0 | 2.0 | 0.00 | 0.00 | 0.00 | 98 | 1013.9 |
| 20260902050709 | 69 | 86 | 2.0 | 2.0 | 0.00 | 0.00 | 0.00 | 97 | 1013.9 |
| 20260902050205 | 69 | 58 | 0.0 | 1.0 | 0.00 | 0.00 | 0.00 | 97 | 1013.9 |
| 20260902050008 | 70 | 271 | 0.0 | 1.0 | 0.00 | 0.05 | 0.00 | 97 | 1012.0 |
| 20260902045704 | 69 | 240 | 0.0 | 1.0 | 0.00 | 0.00 | 0.00 | 97 | 1013.9 |
| 20260902045201 | 70 | 80 | 0.0 | 2.0 | 0.00 | 0.00 | 0.00 | 97 | 1013.6 |
| 20260902044655 | 70 | 53 | 1.0 | 2.0 | 0.00 | 0.00 | 0.00 | 97 | 1013.7 |
| 20260902044152 | 70 | 36 | 0.0 | 2.0 | 0.00 | 0.00 | 0.00 | 97 | 1013.8 |
| 20260902043647 | 70 | 72 | 0.0 | 2.0 | 0.00 | 0.00 | 0.00 | 97 | 1014.0 |
| 20260902043142 | 70 | 53 | 1.0 | 1.0 | 0.00 | 0.00 | 0.00 | 97 | 1013.7 |
| 20260902043008 | 70 | 271 | 0.0 | 1.0 | 0.00 | 0.05 | 0.00 | 97 | 1011.9 |
| 20260902042641 | 70 | 64 | 0.0 | 2.0 | 0.00 | 0.00 | 0.00 | 97 | 1013.8 |
| 20260902042137 | 70 | 53 | 1.0 | 2.0 | 0.00 | 0.00 | 0.00 | 97 | 1013.7 |
| 20260902041636 | 70 | 117 | 0.0 | 2.0 | 0.00 | 0.00 | 0.00 | 97 | 1013.8 |
| 20260902041506 | 70 | 271 | 0.0 | 1.0 | 0.00 | 0.05 | 0.00 | 97 | 1011.8 |
| 20260902041131 | 70 | 122 | 0.0 | 0.0 | 0.00 | 0.00 | 0.00 | 97 | 1013.5 |
| 20260902040631 | 70 | 46 | 1.0 | 2.0 | 0.00 | 0.00 | 0.00 | 97 | 1013.5 |
| 20260902040126 | 70 | 67 | 1.0 | 2.0 | 0.00 | 0.00 | 0.00 | 97 | 1013.4 |
| 20260902040007 | 71 | 271 | 0.0 | 0.0 | 0.00 | 0.05 | 0.00 | 96 | 1011.5 |
| 20260902035624 | 70 | 66 | 0.0 | 2.0 | 0.00 | 0.06 | 0.06 | 97 | 1013.4 |
| 20260902035120 | 70 | 89 | 0.0 | 2.0 | 0.00 | 0.06 | 0.06 | 97 | 1013.4 |
| 20260902034619 | 70 | 101 | 1.0 | 2.0 | 0.00 | 0.06 | 0.06 | 97 | 1013.2 |
| 20260902034506 | 71 | 271 | 0.0 | 0.0 | 0.00 | 0.05 | 0.05 | 96 | 1011.4 |
| 20260902034119 | 70 | 83 | 1.0 | 1.0 | 0.00 | 0.06 | 0.06 | 97 | 1013.1 |
| 20260902033618 | 71 | 68 | 1.0 | 2.0 | 0.00 | 0.06 | 0.06 | 97 | 1013.1 |
| 20260902033113 | 71 | 69 | 0.0 | 2.0 | 0.00 | 0.06 | 0.06 | 97 | 1013.1 |
| 20260902033008 | 71 | 271 | 0.0 | 1.0 | 0.00 | 0.05 | 0.05 | 97 | 1011.3 |
| 20260902032611 | 71 | 40 | 0.0 | 1.0 | 0.00 | 0.06 | 0.06 | 97 | 1013.0 |
| 20260902032106 | 71 | 5 | 0.0 | 1.0 | 0.00 | 0.06 | 0.06 | 97 | 1013.0 |
| 20260902031601 | 71 | 55 | 0.0 | 1.0 | 0.00 | 0.06 | 0.06 | 97 | 1013.2 |
| 20260902031506 | 71 | 271 | 0.0 | 0.0 | 0.00 | 0.05 | 0.05 | 97 | 1011.2 |
| 20260902031057 | 71 | 59 | 1.0 | 1.0 | 0.00 | 0.06 | 0.06 | 97 | 1013.2 |
| 20260902030557 | 71 | 63 | 0.0 | 1.0 | 0.00 | 0.06 | 0.06 | 97 | 1013.1 |
| 20260902030051 | 71 | 51 | 2.0 | 2.0 | 0.00 | 0.06 | 0.06 | 97 | 1012.9 |
| 20260902030007 | 72 | 271 | 0.0 | 0.0 | 0.00 | 0.05 | 0.05 | 97 | 1011.1 |
| 20260902025551 | 71 | 58 | 0.0 | 2.0 | 0.00 | 0.06 | 0.06 | 97 | 1012.7 |
| 20260902025047 | 71 | 89 | 0.0 | 1.0 | 0.00 | 0.06 | 0.06 | 97 | 1012.9 |
| 20260902024542 | 71 | 89 | 0.0 | 2.0 | 0.00 | 0.06 | 0.06 | 97 | 1012.6 |
| 20260902024507 | 72 | 271 | 0.0 | 0.0 | 0.00 | 0.05 | 0.05 | 96 | 1011.0 |
| 20260902024037 | 71 | 55 | 0.0 | 2.0 | 0.00 | 0.06 | 0.06 | 97 | 1012.4 |
| 20260902023532 | 71 | 68 | 0.0 | 1.0 | 0.00 | 0.06 | 0.06 | 97 | 1012.5 |
| 20260902023027 | 71 | 58 | 0.0 | 1.0 | 0.00 | 0.06 | 0.06 | 97 | 1012.3 |
| 20260902023008 | 72 | 271 | 0.0 | 0.0 | 0.00 | 0.05 | 0.05 | 96 | 1010.7 |
| 20260902022521 | 71 | 339 | 0.0 | 1.0 | 0.00 | 0.06 | 0.06 | 96 | 1012.3 |
| 20260902022017 | 71 | 69 | 0.0 | 2.0 | 0.00 | 0.06 | 0.06 | 96 | 1012.3 |
| 20260902021512 | 71 | 48 | 0.0 | 2.0 | 0.00 | 0.06 | 0.06 | 96 | 1012.5 |
| 20260902021507 | 72 | 271 | 0.0 | 0.0 | 0.00 | 0.06 | 0.05 | 95 | 1010.5 |
| 20260902021007 | 72 | 99 | 0.0 | 2.0 | 0.00 | 0.06 | 0.06 | 96 | 1012.5 |
| 20260902020503 | 72 | 40 | 0.0 | 2.0 | 0.00 | 0.06 | 0.06 | 96 | 1012.5 |
| 20260902020007 | 73 | 271 | 0.0 | 0.0 | 0.00 | 0.06 | 0.05 | 95 | 1010.6 |
| 20260902015959 | 72 | 44 | 1.0 | 2.0 | 0.00 | 0.06 | 0.06 | 96 | 1012.3 |
| 20260902015454 | 72 | 80 | 0.0 | 1.0 | 0.00 | 0.06 | 0.06 | 96 | 1012.5 |
| 20260902014950 | 72 | 345 | 0.0 | 1.0 | 0.00 | 0.06 | 0.06 | 96 | 1012.6 |
| 20260902014507 | 73 | 271 | 0.0 | 0.0 | 0.00 | 0.06 | 0.05 | 95 | 1010.5 |
| 20260902014446 | 72 | 118 | 0.0 | 2.0 | 0.00 | 0.06 | 0.06 | 95 | 1012.4 |
| 20260902013946 | 73 | 83 | 0.0 | 2.0 | 0.00 | 0.06 | 0.06 | 95 | 1012.2 |
| 20260902013442 | 73 | 58 | 2.0 | 2.0 | 0.00 | 0.06 | 0.06 | 95 | 1012.3 |
| 20260902013007 | 74 | 271 | 0.0 | 1.0 | 0.00 | 0.06 | 0.05 | 95 | 1010.5 |
| 20260902012942 | 73 | 136 | 0.0 | 2.0 | 0.00 | 0.06 | 0.06 | 95 | 1012.4 |
| 20260902012437 | 73 | 58 | 2.0 | 2.0 | 0.00 | 0.06 | 0.06 | 95 | 1012.5 |
| 20260902011933 | 73 | 278 | 0.0 | 2.0 | 0.00 | 0.06 | 0.06 | 95 | 1012.4 |
| 20260902011506 | 74 | 271 | 0.0 | 0.0 | 0.00 | 0.06 | 0.05 | 94 | 1010.5 |
| 20260902011428 | 73 | 38 | 1.0 | 2.0 | 0.00 | 0.06 | 0.06 | 95 | 1012.4 |
| 20260902010927 | 73 | 43 | 0.0 | 2.0 | 0.00 | 0.06 | 0.06 | 95 | 1012.4 |
| 20260902010423 | 73 | 59 | 2.0 | 2.0 | 0.00 | 0.06 | 0.06 | 95 | 1012.5 |
| 20260902005922 | 74 | 315 | 0.0 | 2.0 | 0.00 | 0.06 | 0.06 | 95 | 1012.3 |
| 20260902005421 | 74 | 58 | 2.0 | 3.0 | 0.00 | 0.06 | 0.06 | 95 | 1012.2 |
| 20260902004918 | 74 | 25 | 0.0 | 3.0 | 0.00 | 0.06 | 0.06 | 95 | 1012.3 |
| 20260902004508 | 74 | 250 | 0.0 | 2.0 | 0.00 | 0.06 | 0.05 | 94 | 1010.5 |
| 20260902004417 | 74 | 62 | 2.0 | 2.0 | 0.00 | 0.06 | 0.06 | 95 | 1012.2 |
| 20260902003913 | 74 | 283 | 0.0 | 2.0 | 0.02 | 0.06 | 0.06 | 95 | 1012.0 |
| 20260902003413 | 74 | 246 | 1.0 | 3.0 | 0.02 | 0.06 | 0.06 | 94 | 1011.4 |
| 20260902003008 | 75 | 281 | 0.0 | 2.0 | 0.00 | 0.06 | 0.05 | 92 | 1009.7 |
| 20260902002908 | 74 | 199 | 0.0 | 2.0 | 0.00 | 0.05 | 0.05 | 93 | 1011.3 |
| 20260902002408 | 75 | 69 | 0.0 | 1.0 | 0.00 | 0.05 | 0.05 | 92 | 1011.3 |
| 20260902001903 | 75 | 74 | 1.0 | 2.0 | 0.00 | 0.05 | 0.05 | 92 | 1010.9 |
| 20260902001507 | 76 | 40 | 0.0 | 1.0 | 0.00 | 0.06 | 0.05 | 91 | 1009.1 |
| 20260902001358 | 75 | 35 | 0.0 | 2.0 | 0.00 | 0.05 | 0.05 | 92 | 1010.7 |
| 20260902000853 | 75 | 11 | 0.0 | 2.0 | 0.00 | 0.05 | 0.05 | 92 | 1010.8 |
| 20260902000353 | 75 | 46 | 0.0 | 1.0 | 0.00 | 0.05 | 0.05 | 92 | 1010.9 |
| 20260902000006 | 76 | 40 | 0.0 | 1.0 | 0.00 | 0.06 | 0.05 | 90 | 1009.3 |
| 20260901235849 | 75 | 37 | 2.0 | 2.0 | 0.00 | 0.05 | 0.05 | 91 | 1010.9 |
| 20260901235348 | 75 | 25 | 0.0 | 1.0 | 0.00 | 0.05 | 0.05 | 91 | 1010.9 |
| 20260901234845 | 76 | 335 | 0.0 | 2.0 | 0.00 | 0.05 | 0.05 | 91 | 1011.0 |
| 20260901234506 | 76 | 40 | 0.0 | 0.0 | 0.00 | 0.06 | 0.05 | 89 | 1009.4 |
| 20260901234343 | 76 | 85 | 0.0 | 2.0 | 0.00 | 0.05 | 0.05 | 90 | 1011.0 |
| 20260901233839 | 76 | 63 | 0.0 | 2.0 | 0.00 | 0.05 | 0.05 | 90 | 1011.2 |
| 20260901233334 | 76 | 59 | 1.0 | 2.0 | 0.00 | 0.05 | 0.05 | 90 | 1011.4 |
| 20260901233007 | 77 | 40 | 0.0 | 1.0 | 0.00 | 0.06 | 0.05 | 88 | 1009.7 |
| 20260901232830 | 76 | 235 | 0.0 | 0.0 | 0.00 | 0.05 | 0.05 | 89 | 1011.6 |
| 20260901232325 | 77 | 42 | 0.0 | 1.0 | 0.00 | 0.05 | 0.05 | 89 | 1011.2 |
| 20260901231821 | 77 | 37 | 0.0 | 1.0 | 0.00 | 0.05 | 0.05 | 89 | 1011.1 |
| 20260901231317 | 77 | 34 | 0.0 | 2.0 | 0.00 | 0.05 | 0.05 | 89 | 1011.0 |
| 20260901230813 | 77 | 75 | 2.0 | 2.0 | 0.00 | 0.05 | 0.05 | 89 | 1010.7 |
| 20260901230312 | 77 | 41 | 1.0 | 2.0 | 0.00 | 0.05 | 0.05 | 89 | 1011.0 |
| 20260901230006 | 78 | 34 | 0.0 | 1.0 | 0.00 | 0.06 | 0.05 | 87 | 1009.5 |
| 20260901225808 | 77 | 71 | 0.0 | 0.0 | 0.00 | 0.05 | 0.05 | 88 | 1011.2 |
| 20260901225308 | 78 | 0 | 0.0 | 1.0 | 0.00 | 0.05 | 0.05 | 87 | 1011.1 |
| 20260901224803 | 78 | 37 | 0.0 | 2.0 | 0.00 | 0.05 | 0.05 | 87 | 1011.3 |
| 20260901224506 | 78 | 34 | 0.0 | 1.0 | 0.00 | 0.06 | 0.05 | 86 | 1009.5 |
| 20260901224259 | 78 | 65 | 0.0 | 2.0 | 0.00 | 0.05 | 0.05 | 87 | 1011.7 |
| 20260901223755 | 78 | 66 | 1.0 | 2.0 | 0.00 | 0.05 | 0.05 | 86 | 1011.3 |
| 20260901223249 | 78 | 68 | 2.0 | 2.0 | 0.00 | 0.05 | 0.05 | 86 | 1011.2 |
| 20260901223007 | 78 | 34 | 0.0 | 1.0 | 0.00 | 0.06 | 0.05 | 85 | 1009.5 |
| 20260901222746 | 77 | 36 | 1.0 | 2.0 | 0.00 | 0.05 | 0.05 | 86 | 1011.3 |
| 20260901222242 | 77 | 43 | 1.0 | 1.0 | 0.00 | 0.05 | 0.05 | 85 | 1011.7 |
| 20260901221738 | 78 | 55 | 0.0 | 1.0 | 0.00 | 0.05 | 0.05 | 85 | 1011.1 |
| 20260901221506 | 79 | 34 | 0.0 | 1.0 | 0.00 | 0.06 | 0.05 | 83 | 1009.4 |
| 20260901221233 | 78 | 269 | 0.0 | 1.0 | 0.00 | 0.05 | 0.05 | 84 | 1011.0 |
| 20260901220733 | 78 | 193 | 0.0 | 2.0 | 0.00 | 0.05 | 0.05 | 82 | 1010.5 |
| 20260901220232 | 79 | 37 | 0.0 | 1.0 | 0.00 | 0.05 | 0.05 | 83 | 1010.5 |
| 20260901220007 | 80 | 34 | 0.0 | 1.0 | 0.00 | 0.06 | 0.05 | 81 | 1008.6 |
| 20260901215731 | 79 | 89 | 0.0 | 1.0 | 0.00 | 0.05 | 0.05 | 82 | 1010.2 |
| 20260901215226 | 80 | 3 | 0.0 | 1.0 | 0.00 | 0.05 | 0.05 | 81 | 1009.9 |
| 20260901214724 | 80 | 65 | 0.0 | 2.0 | 0.00 | 0.05 | 0.05 | 81 | 1009.8 |
| 20260901214218 | 80 | 133 | 0.0 | 2.0 | 0.00 | 0.05 | 0.05 | 80 | 1010.2 |
| 20260901213717 | 80 | 31 | 1.0 | 2.0 | 0.00 | 0.05 | 0.05 | 79 | 1010.2 |
| 20260901213213 | 81 | 214 | 0.0 | 1.0 | 0.00 | 0.05 | 0.05 | 79 | 1010.3 |
| 20260901213007 | 81 | 34 | 0.0 | 1.0 | 0.00 | 0.07 | 0.05 | 78 | 1008.3 |
| 20260901212712 | 81 | 64 | 0.0 | 1.0 | 0.00 | 0.05 | 0.05 | 78 | 1010.1 |
| 20260901212208 | 81 | 1 | 0.0 | 1.0 | 0.00 | 0.05 | 0.05 | 78 | 1010.2 |
| 20260901211708 | 81 | 62 | 0.0 | 1.0 | 0.00 | 0.05 | 0.05 | 76 | 1010.1 |
| 20260901211506 | 82 | 34 | 0.0 | 1.0 | 0.00 | 0.11 | 0.05 | 77 | 1008.4 |
| 20260901211205 | 81 | 66 | 0.0 | 1.0 | 0.00 | 0.05 | 0.05 | 79 | 1010.1 |
| 20260901210700 | 81 | 185 | 0.0 | 1.0 | 0.00 | 0.05 | 0.05 | 75 | 1010.4 |
| 20260901210155 | 82 | 269 | 0.0 | 2.0 | 0.00 | 0.05 | 0.05 | 73 | 1010.6 |
| 20260901210008 | 83 | 37 | 0.0 | 3.0 | 0.00 | 0.11 | 0.05 | 71 | 1008.6 |
| 20260901205651 | 83 | 93 | 0.0 | 1.0 | 0.00 | 0.05 | 0.05 | 72 | 1010.3 |
| 20260901205151 | 84 | 338 | 2.0 | 3.0 | 0.00 | 0.05 | 0.05 | 69 | 1010.3 |
| 20260901204648 | 85 | 28 | 2.0 | 4.0 | 0.00 | 0.05 | 0.05 | 69 | 1009.9 |
| 20260901204506 | 85 | 53 | 1.0 | 3.0 | 0.00 | 0.11 | 0.05 | 68 | 1008.1 |
| 20260901204143 | 85 | 26 | 2.0 | 3.0 | 0.00 | 0.05 | 0.05 | 68 | 1009.9 |
| 20260901203642 | 85 | 3 | 2.0 | 3.0 | 0.00 | 0.05 | 0.05 | 67 | 1010.1 |
| 20260901203138 | 84 | 59 | 1.0 | 2.0 | 0.00 | 0.05 | 0.05 | 69 | 1010.0 |
| 20260901203007 | 85 | 26 | 1.0 | 3.0 | 0.00 | 0.11 | 0.05 | 66 | 1008.2 |
| 20260901202637 | 84 | 36 | 2.0 | 3.0 | 0.00 | 0.05 | 0.05 | 67 | 1010.4 |
| 20260901202133 | 85 | 6 | 2.0 | 2.0 | 0.00 | 0.05 | 0.05 | 65 | 1010.4 |
| 20260901201629 | 86 | 38 | 0.0 | 4.0 | 0.00 | 0.05 | 0.05 | 64 | 1010.3 |
| 20260901201507 | 87 | 33 | 2.0 | 3.0 | 0.00 | 0.11 | 0.05 | 62 | 1008.4 |
| 20260901201128 | 88 | 11 | 3.0 | 3.0 | 0.00 | 0.05 | 0.05 | 61 | 1010.4 |
| 20260901200627 | 89 | 358 | 2.0 | 3.0 | 0.00 | 0.05 | 0.05 | 61 | 1010.3 |
| 20260901200122 | 89 | 162 | 0.0 | 2.0 | 0.00 | 0.05 | 0.05 | 60 | 1010.3 |
| 20260901200007 | 87 | 115 | 1.0 | 3.0 | 0.00 | 0.11 | 0.05 | 66 | 1008.4 |
| 20260901195621 | 88 | 358 | 0.0 | 3.0 | 0.00 | 0.05 | 0.05 | 62 | 1010.4 |
| 20260901195120 | 87 | 71 | 0.0 | 3.0 | 0.00 | 0.05 | 0.05 | 62 | 1010.3 |
| 20260901194616 | 88 | 245 | 3.0 | 4.0 | 0.00 | 0.05 | 0.05 | 61 | 1010.5 |
| 20260901194506 | 86 | 204 | 0.0 | 3.0 | 0.00 | 0.11 | 0.05 | 66 | 1008.5 |
| 20260901194111 | 87 | 0 | 0.0 | 2.0 | 0.00 | 0.05 | 0.05 | 67 | 1010.5 |
| 20260901193607 | 86 | 331 | 1.0 | 2.0 | 0.00 | 0.05 | 0.05 | 65 | 1010.6 |
| 20260901193101 | 85 | 274 | 1.0 | 3.0 | 0.00 | 0.05 | 0.05 | 68 | 1010.4 |
| 20260901192555 | 85 | 250 | 2.0 | 2.0 | 0.00 | 0.05 | 0.05 | 71 | 1010.6 |
| 20260901192051 | 84 | 226 | 4.0 | 4.0 | 0.00 | 0.05 | 0.05 | 72 | 1010.5 |